DW4238 Weather Reports


time (UTC)temp
F
wind
direction
speed
knots
gust
knots
rain 1hr
in
rain 24hr
in
rain mn
in
humidity
%
barometer
mb
20260903120116 80 171 2.6 6.1 0.00 1.20 0.00 94 1012.6
20260903115621 80 166 4.3 6.1 0.00 1.20 0.00 94 1012.5
20260903115132 80 188 4.3 6.1 0.00 1.20 0.00 94 1012.5
20260903114553 80 170 3.5 5.2 0.00 1.20 0.00 94 1012.4
20260903114045 80 161 4.3 5.2 0.00 1.20 0.00 94 1012.4
20260903113106 80 178 4.3 7.0 0.00 1.20 0.00 94 1012.4
20260903112612 80 178 4.3 7.0 0.00 1.20 0.00 94 1012.3
20260903112122 80 166 5.2 7.0 0.00 1.20 0.00 94 1012.4
20260903111554 80 171 4.3 5.2 0.00 1.20 0.00 94 1012.3
20260903111055 80 169 3.5 5.2 0.00 1.20 0.00 94 1012.3
20260903110124 80 165 5.2 7.0 0.00 1.20 0.00 94 1012.3
20260903105608 80 183 3.5 4.3 0.00 1.20 0.00 94 1012.3
20260903104628 80 184 2.6 5.2 0.00 1.20 0.00 94 1012.2
20260903104039 80 186 3.5 7.0 0.00 1.20 0.00 94 1012.2
20260903103106 80 180 3.5 7.0 0.00 1.20 0.00 94 1012.2
20260903102618 80 190 3.5 6.1 0.00 1.20 0.00 94 1012.2
20260903102122 80 187 4.3 7.8 0.00 1.20 0.00 94 1012.2
20260903101550 80 181 3.5 6.1 0.00 1.20 0.00 94 1012.2
20260903101102 80 185 4.3 6.1 0.00 1.20 0.00 94 1012.3
20260903100103 80 182 3.5 6.1 0.00 1.20 0.00 94 1012.3
20260903095608 80 187 5.2 6.1 0.00 1.20 0.00 94 1012.2
20260903095120 80 178 2.6 4.3 0.00 1.20 0.00 94 1012.3
20260903094042 80 179 1.7 3.5 0.00 1.20 0.00 94 1012.4
20260903093105 80 178 1.7 4.3 0.00 1.20 0.00 94 1012.4
20260903092617 80 179 1.7 4.3 0.00 1.20 0.00 93 1012.4
20260903091618 80 168 3.5 7.8 0.00 1.20 0.00 93 1012.4
20260903091130 80 168 5.2 7.8 0.00 1.20 0.00 93 1012.4
20260903090635 80 157 4.3 6.1 0.00 1.20 0.00 93 1012.4
20260903090105 80 171 3.5 5.2 0.00 1.20 0.00 93 1012.4
20260903085614 80 180 3.5 5.2 0.00 1.20 0.00 93 1012.3
20260903084553 80 182 3.5 6.1 0.00 1.20 0.00 93 1012.3
20260903084058 80 182 4.3 7.0 0.00 1.20 0.00 93 1012.2
20260903083057 80 179 3.5 7.0 0.00 1.20 0.00 93 1012.2
20260903082609 80 182 4.3 7.8 0.00 1.20 0.00 93 1012.2
20260903082113 80 182 4.3 7.8 0.00 1.20 0.00 93 1012.2
20260903081544 80 157 5.2 7.8 0.00 1.20 0.00 93 1012.2
20260903081055 80 169 5.2 7.8 0.00 1.20 0.00 93 1012.2
20260903080118 80 159 5.2 7.8 0.00 1.20 0.00 92 1012.1
20260903075608 80 188 5.2 8.7 0.00 1.20 0.00 92 1012.1
20260903075107 80 167 7.0 9.6 0.00 1.20 0.00 92 1012.0
20260903074538 80 180 7.0 9.6 0.00 1.20 0.00 92 1012.0
20260903074044 80 173 7.0 10.4 0.00 1.20 0.00 92 1012.0
20260903073113 80 170 7.0 8.7 0.00 1.20 0.00 92 1011.9
20260903072616 80 194 6.1 8.7 0.00 1.20 0.00 92 1011.9
20260903072132 80 180 7.0 10.4 0.00 1.20 0.00 92 1011.8
20260903071552 80 194 6.1 10.4 0.00 1.20 0.00 91 1011.9
20260903071103 80 179 7.0 10.4 0.00 1.20 0.00 91 1011.9
20260903070105 81 191 7.8 12.2 0.00 1.20 0.00 91 1011.9
20260903065554 81 169 9.6 13.9 0.00 1.20 0.00 91 1012.0
20260903065044 81 163 9.6 14.8 0.00 1.20 0.00 91 1012.0
20260903064537 81 168 10.4 14.8 0.00 1.20 0.00 91 1012.1
20260903064048 81 162 7.8 12.2 0.00 1.20 0.00 91 1012.1
20260903063558 81 170 7.8 11.3 0.00 1.20 0.00 91 1012.1
20260903063050 80 178 7.8 12.2 0.00 1.20 0.00 92 1012.2
20260903062540 80 159 8.7 13.0 0.00 1.20 0.00 92 1012.2
20260903062050 80 180 6.1 10.4 0.00 1.20 0.00 93 1012.2
20260903061543 80 165 6.1 12.2 0.00 1.20 0.00 93 1012.2
20260903061038 80 155 7.8 12.2 0.00 1.20 0.00 93 1012.2
20260903060550 79 149 7.0 12.2 0.00 1.20 0.00 93 1012.2
20260903060043 79 157 7.8 10.4 0.00 1.20 0.00 93 1012.2
20260903055554 79 160 7.0 11.3 0.00 1.20 0.00 93 1012.2
20260903055039 78 161 8.7 11.3 0.00 1.20 0.00 93 1012.2
20260903054535 78 148 6.1 11.3 0.00 1.20 0.00 93 1012.2
20260903054046 78 149 7.8 11.3 0.00 1.20 0.00 93 1012.2
20260903053536 78 141 7.0 9.6 0.00 1.20 0.00 92 1012.3
20260903053055 78 154 6.1 10.4 0.00 1.20 0.00 92 1012.3
20260903052543 78 146 7.0 10.4 0.00 1.20 0.00 92 1012.3
20260903052052 78 126 7.0 10.4 0.00 1.20 0.00 92 1012.3
20260903051551 78 150 7.0 10.4 0.00 1.20 0.00 92 1012.3
20260903051102 78 159 7.8 10.4 0.00 1.20 0.00 92 1012.2
20260903050544 78 154 7.8 13.9 0.00 1.20 0.00 91 1012.2
20260903050104 78 153 9.6 13.9 0.00 1.20 0.00 91 1012.2
20260903045610 78 153 10.4 13.9 0.00 1.20 1.20 91 1012.3
20260903045109 78 133 9.6 13.9 0.00 1.20 1.20 91 1012.4
20260903044541 78 173 10.4 13.0 0.00 1.20 1.20 91 1012.4
20260903044053 78 137 8.7 13.0 0.00 1.20 1.20 91 1012.4
20260903043115 78 147 7.8 12.2 0.01 1.20 1.20 91 1012.7
20260903042558 78 164 8.7 13.9 0.01 1.20 1.20 91 1012.8
20260903041632 78 144 7.8 10.4 0.01 1.20 1.20 90 1012.8
20260903041137 78 153 7.8 9.6 0.01 1.20 1.20 90 1012.8
20260903040629 78 178 7.0 8.7 0.01 1.20 1.20 89 1012.9
20260903040054 78 155 5.2 13.0 0.02 1.20 1.20 89 1013.0
20260903035559 78 176 7.0 13.0 0.02 1.20 1.20 89 1013.0
20260903035151 79 169 6.1 10.4 0.02 1.20 1.20 88 1013.0
20260903034558 79 180 7.0 11.3 0.02 1.20 1.20 90 1013.2
20260903034103 79 190 7.0 9.6 0.02 1.20 1.20 91 1013.4
20260903033127 79 167 7.0 9.6 0.02 1.20 1.20 93 1013.2
20260903032541 79 188 7.0 9.6 0.01 1.19 1.19 93 1013.2
20260903032132 79 185 5.2 9.6 0.01 1.19 1.19 92 1013.2
20260903031551 79 171 6.1 9.6 0.01 1.19 1.19 92 1013.1
20260903031102 79 157 6.1 9.6 0.01 1.19 1.19 92 1013.3
20260903030042 79 139 4.3 8.7 0.01 1.19 1.19 91 1013.4
20260903025552 79 137 5.2 8.7 0.01 1.19 1.19 91 1013.3
20260903024614 80 142 4.3 7.0 0.02 1.18 1.18 90 1013.0
20260903024106 80 134 3.5 7.8 0.15 1.18 1.18 89 1012.8
20260903023125 80 90 2.6 4.3 0.65 1.18 1.18 87 1013.0
20260903022627 81 223 0.0 2.6 0.87 1.18 1.18 86 1012.8
20260903022122 81 224 0.0 0.9 1.14 1.18 1.18 86 1012.7
20260903021549 81 223 0.0 0.9 1.18 1.18 1.18 85 1012.7
20260903021054 81 223 0.0 3.5 1.18 1.18 1.18 85 1012.5
20260903020123 80 223 1.7 7.8 1.18 1.18 1.18 88 1012.4
20260903015605 80 209 3.5 10.4 1.18 1.18 1.18 88 1012.1
20260903014627 80 113 4.3 10.4 1.18 1.18 1.18 87 1011.8
20260903014043 80 91 7.0 10.4 1.09 1.09 1.09 86 1012.0
20260903013100 83 135 1.7 8.7 0.76 0.76 0.76 79 1011.9
20260903012547 85 318 0.0 10.4 0.53 0.53 0.53 75 1011.7
20260903011608 88 337 0.0 7.8 0.04 0.04 0.04 68 1011.1
20260903011120 88 77 2.6 9.6 0.00 0.00 0.00 67 1010.7
20260903010122 89 71 8.7 14.8 0.00 0.00 0.00 65 1010.4
20260903005634 90 66 9.6 14.8 0.00 0.00 0.00 62 1010.1
20260903005113 93 67 6.1 12.2 0.00 0.00 0.00 57 1010.0
20260903004545 95 78 6.1 10.4 0.00 0.00 0.00 55 1009.9
20260903004049 95 188 0.9 6.1 0.00 0.00 0.00 53 1009.8
20260903003119 95 191 3.5 7.8 0.00 0.00 0.00 53 1009.6
20260903002624 96 198 4.3 8.7 0.00 0.00 0.00 53 1009.7
20260903001624 96 194 7.0 7.8 0.00 0.00 0.00 52 1009.6
20260903001036 96 150 5.2 7.8 0.00 0.00 0.00 51 1009.5
20260903000058 97 160 3.5 7.0 0.00 0.00 0.00 48 1009.5
20260902235613 97 200 1.7 4.3 0.00 0.00 0.00 48 1009.6
20260902235108 97 200 2.6 4.3 0.00 0.00 0.00 48 1009.6
20260902234540 98 211 1.7 3.5 0.00 0.00 0.00 47 1009.7
20260902234051 98 213 1.7 4.3 0.00 0.00 0.00 47 1009.7
20260902233113 98 217 0.9 4.3 0.00 0.00 0.00 48 1009.6
20260902232556 98 121 0.9 8.7 0.00 0.00 0.00 48 1009.6
20260902231621 98 200 1.7 7.0 0.00 0.00 0.00 47 1009.7
20260902231044 98 167 1.7 4.3 0.00 0.00 0.00 48 1009.7
20260902230114 98 115 2.6 5.2 0.00 0.00 0.00 48 1009.7
20260902225604 98 124 0.9 5.2 0.00 0.00 0.00 49 1009.8
20260902224625 98 96 1.7 5.2 0.00 0.00 0.00 49 1009.7
20260902224137 97 61 1.7 5.2 0.00 0.00 0.00 48 1009.7
20260902223118 97 347 1.7 4.3 0.00 0.00 0.00 48 1009.8
20260902222630 98 333 1.7 6.1 0.00 0.00 0.00 48 1009.8
20260902222132 98 333 2.6 7.0 0.00 0.00 0.00 48 1009.8
20260902221558 98 207 4.3 9.6 0.00 0.00 0.00 47 1009.6
20260902221103 98 224 3.5 11.3 0.00 0.00 0.00 47 1009.6
20260902220135 98 189 5.2 8.7 0.00 0.00 0.00 47 1009.6
20260902215538 98 202 6.1 8.7 0.00 0.00 0.00 47 1009.8
20260902214557 99 248 6.1 9.6 0.00 0.00 0.00 47 1009.8
20260902214047 99 202 4.3 8.7 0.00 0.00 0.00 47 1009.8
20260902213109 99 229 6.1 13.0 0.00 0.00 0.00 47 1009.9
20260902212620 99 211 7.0 13.0 0.00 0.00 0.00 47 1009.9
20260902212124 99 208 7.8 13.0 0.00 0.00 0.00 47 1010.0
20260902211555 98 201 6.1 9.6 0.00 0.00 0.00 48 1010.1
20260902211107 98 239 6.1 11.3 0.00 0.00 0.00 49 1010.1
20260902210107 98 177 3.5 8.7 0.00 0.00 0.00 48 1010.2
20260902205549 99 209 3.5 7.0 0.00 0.00 0.00 48 1010.2
20260902204612 98 198 5.2 8.7 0.00 0.00 0.00 49 1010.4
20260902204055 98 242 4.3 7.8 0.00 0.00 0.00 48 1010.5
20260902203057 97 263 2.6 7.8 0.00 0.00 0.00 50 1010.5
20260902202612 97 209 5.2 7.8 0.00 0.00 0.00 50 1010.6
20260902201634 97 229 3.5 8.7 0.00 0.00 0.00 50 1010.7
20260902201045 97 275 4.3 9.6 0.00 0.00 0.00 51 1010.7
20260902200108 97 226 2.6 7.8 0.00 0.00 0.00 51 1010.9
20260902195612 97 220 5.2 7.0 0.00 0.00 0.00 51 1011.0
20260902194621 97 207 4.3 11.3 0.00 0.00 0.00 50 1011.2
20260902194104 97 277 7.0 11.3 0.00 0.00 0.00 49 1011.3
20260902193616 97 296 4.3 11.3 0.00 0.00 0.00 50 1011.3
20260902193047 97 232 5.2 11.3 0.00 0.00 0.00 51 1011.5
20260902192649 97 236 5.2 13.0 0.00 0.00 0.00 51 1011.5
20260902191630 97 225 6.1 13.0 0.00 0.00 0.00 53 1011.7
20260902191041 96 243 4.3 10.4 0.00 0.00 0.00 53 1011.8
20260902190104 96 259 5.2 9.6 0.00 0.00 0.00 53 1011.9
20260902185547 96 275 5.2 11.3 0.00 0.00 0.00 54 1012.0
20260902184620 95 273 6.1 12.2 0.00 0.00 0.00 54 1012.2
20260902184124 95 276 7.0 12.2 0.00 0.00 0.00 54 1012.4
20260902183633 95 267 4.3 9.6 0.00 0.00 0.00 55 1012.4
20260902183100 95 240 5.2 13.0 0.00 0.00 0.00 55 1012.5
20260902182605 95 239 8.7 13.0 0.00 0.00 0.00 54 1012.6
20260902181626 94 232 0.9 7.8 0.00 0.00 0.00 58 1012.7
20260902181036 94 329 3.5 11.3 0.00 0.00 0.00 58 1012.8
20260902180648 94 289 6.1 11.3 0.00 0.00 0.00 55 1012.9
20260902180051 94 251 4.3 10.4 0.00 0.00 0.00 58 1013.1
20260902175603 94 273 4.3 10.4 0.00 0.00 0.00 60 1013.1
20260902175153 94 249 4.3 8.7 0.00 0.00 0.00 58 1013.3
20260902174555 94 240 2.6 10.4 0.00 0.00 0.00 60 1013.4
20260902174106 93 281 3.5 11.3 0.00 0.00 0.00 59 1013.5
20260902173606 93 274 7.0 11.3 0.00 0.00 0.00 59 1013.5
20260902173037 93 219 5.2 11.3 0.00 0.00 0.00 59 1013.7
20260902172550 93 195 7.0 11.3 0.00 0.00 0.00 60 1013.8
20260902172157 92 216 2.6 12.2 0.00 0.00 0.00 62 1013.8
20260902171603 92 281 5.2 13.0 0.00 0.00 0.00 62 1013.9
20260902171112 92 221 7.8 13.9 0.00 0.00 0.00 62 1014.0
20260902170554 92 264 9.6 13.9 0.00 0.00 0.00 61 1014.1
20260902170040 92 251 6.1 12.2 0.00 0.00 0.00 62 1014.1
20260902165546 92 270 7.8 12.2 0.00 0.00 0.00 62 1014.2
20260902165147 92 246 7.0 11.3 0.00 0.00 0.00 63 1014.2
20260902164558 91 223 7.8 13.9 0.00 0.00 0.00 64 1014.3
20260902164110 91 276 6.1 13.9 0.00 0.00 0.00 64 1014.2
20260902163611 91 225 6.1 12.2 0.00 0.00 0.00 63 1014.4
20260902163042 91 244 5.2 10.4 0.00 0.00 0.00 66 1014.4
20260902162554 90 263 6.1 11.3 0.00 0.00 0.00 66 1014.5
20260902161615 90 269 8.7 13.0 0.00 0.00 0.00 66 1014.5
20260902161121 89 275 7.8 10.4 0.00 0.00 0.00 68 1014.5
20260902160632 89 297 7.8 13.0 0.00 0.00 0.00 68 1014.6
20260902160043 89 286 7.8 13.0 0.00 0.00 0.00 68 1014.6
20260902155544 89 254 7.8 13.0 0.00 0.00 0.00 68 1014.5
20260902154612 88 260 7.8 12.2 0.00 0.00 0.00 70 1014.5
20260902154114 87 265 7.0 11.3 0.00 0.00 0.00 73 1014.6
20260902153626 87 240 7.0 11.3 0.00 0.00 0.00 74 1014.5
20260902153046 86 256 6.1 12.2 0.00 0.00 0.00 75 1014.6
20260902152558 86 260 7.0 12.2 0.00 0.00 0.00 76 1014.5
20260902151619 85 248 6.1 10.4 0.00 0.00 0.00 77 1014.6
20260902151130 85 275 6.1 10.4 0.00 0.00 0.00 79 1014.6
20260902150634 85 250 5.2 10.4 0.00 0.00 0.00 81 1014.6
20260902145652 84 261 4.3 7.8 0.00 0.00 0.00 83 1014.5
20260902145136 83 290 2.6 7.8 0.00 0.00 0.00 84 1014.5
20260902144604 83 263 2.6 7.0 0.00 0.00 0.00 85 1014.5
20260902144116 82 297 3.5 7.0 0.00 0.00 0.00 85 1014.5
20260902143622 82 280 4.3 7.0 0.00 0.00 0.00 85 1014.6
20260902143049 82 279 3.5 7.0 0.00 0.00 0.00 86 1014.5
20260902142558 82 302 3.5 10.4 0.00 0.00 0.00 86 1014.6
20260902141600 82 286 4.3 7.8 0.00 0.00 0.00 86 1014.6
20260902141112 81 264 4.3 8.7 0.00 0.00 0.00 86 1014.7
20260902140136 81 281 5.2 8.7 0.00 0.00 0.00 86 1014.7
20260902135627 81 250 5.2 7.8 0.00 0.00 0.00 86 1014.7
20260902135109 81 281 5.2 10.4 0.00 0.00 0.00 87 1014.6
20260902134537 81 266 4.3 10.4 0.00 0.00 0.00 87 1014.6
20260902134150 80 242 4.3 7.8 0.00 0.00 0.00 87 1014.6
20260902133632 80 270 3.5 7.0 0.00 0.00 0.00 87 1014.6
20260902133103 80 271 3.5 7.0 0.00 0.00 0.00 87 1014.5
20260902132554 80 265 2.6 7.0 0.00 0.00 0.00 87 1014.5
20260902132135 80 271 2.6 7.8 0.00 0.00 0.00 87 1014.4
20260902131605 80 270 4.3 7.8 0.00 0.00 0.00 87 1014.3
20260902131118 79 250 3.5 7.0 0.00 0.00 0.00 87 1014.3
20260902130623 79 273 2.6 6.1 0.00 0.00 0.00 87 1014.2
20260902130050 79 264 3.5 6.1 0.00 0.00 0.00 87 1014.0
20260902125555 79 270 1.7 4.3 0.00 0.00 0.00 87 1014.0
20260902124603 79 268 3.5 5.2 0.00 0.00 0.00 87 1013.8
20260902124108 79 280 1.7 3.5 0.00 0.00 0.00 87 1013.7
20260902123119 79 271 0.0 0.0 0.00 0.00 0.00 87 1013.5
20260902122623 79 271 0.0 0.9 0.00 0.00 0.00 87 1013.5
20260902122134 79 274 0.0 0.0 0.00 0.00 0.00 87 1013.4
20260902121555 79 269 0.0 0.0 0.00 0.00 0.00 87 1013.3
20260902121107 79 271 0.0 0.0 0.00 0.00 0.00 87 1013.3
20260902120607 79 271 0.0 0.0 0.00 0.00 0.00 87 1013.4